Regional Weather Roundup
Issued by NWS

Home | Current Version | Previous Version | Text Only | Print | Product List | Glossary On
Versions: 1 2 3 4 5 6 7 8 9 10 11 12 13 14 15 16 17 18 19 20 21 22 23 24 25 26 27 28 29 30 31 32 33 34 35 36 37 38 39 40 41 42 43 44 45 46 47 48 49 50
000
ASUS43 KLMK 272210
RWRKY
NATIONAL WEATHER SERVICE LOUISVILLE KY
500 PM EST THU NOV 27 2014

NOTE "FAIR" INDICATES FEW OR NO CLOUDS BELOW 12,000 FEET
WITH NO SIGNIFICANT WEATHER AND/OR OBSTRUCTIONS TO VISIBILITY.

KYZ001>023-026-027-061>063-070>075-272300-
WESTERN AND SOUTH CENTRAL KENTUCKY

CITY           SKY/WX    TMP DP  RH WIND       PRES   REMARKS
PADUCAH        CLOUDY    35  25  66 NW6       30.46F WCI  30
HENDERSON      CLOUDY    30  19  64 NW15      30.46S WCI  19
OWENSBORO      CLOUDY    30  23  75 NW12      30.46R WCI  20
HOPKINSVILLE   CLOUDY    32  22  67 NW12      30.46R WCI  23
BOWLING GREEN  CLOUDY    31  21  66 W9        30.45R WCI  23
GLASGOW        CLOUDY    30  24  78 W8        30.42R WCI  22
$$

KYZ024-025-028>034-038-045-046-053-272300-
NORTH CENTRAL KENTUCKY

CITY           SKY/WX    TMP DP  RH WIND       PRES   REMARKS
LOUISVILLE/SDF CLOUDY    32  21  64 W13       30.40R WCI  22
LOUISVILLE/LOU CLOUDY    32  21  64 W14       30.39R WCI  22
FORT KNOX      CLOUDY    30  24  78 W10       30.38R WCI  21
$$

KYZ035>037-039>044-047>052-055>060-089>105-272300-
NORTHEAST KENTUCKY

CITY           SKY/WX    TMP DP  RH WIND       PRES   REMARKS
LEXINGTON      CLOUDY    31  23  72 W9        30.34R WCI  23
COVINGTON      CLOUDY    31  21  66 W14       30.32R WCI  21
FRANKFORT      CLOUDY    32  22  66 W6        30.35R WCI  26
$$

KYZ054-064>069-076>088-106>120-272300-
SOUTHEAST KENTUCKY

CITY           SKY/WX    TMP DP  RH WIND       PRES   REMARKS
JACKSON        CLOUDY    30  21  69 W7        30.30R WCI  23
LONDON         CLOUDY    31  25  78 W8        30.34R WCI  23
SOMERSET       CLOUDY    32  25  74 NW5       30.39R WCI  27
MIDDLESBORO    NOT AVBL
MONTICELLO     CLOUDY    32  24  72 NW9       30.41R WCI  24
$$



USA.gov is the U.S. government's official web portal to all federal, state and local government web resources and services.